Location: Grieser Field
(39.7333°N, 81.7975°W)
Time: 23:30:47
(UTC-04:00)

Daily predictions for brighter satellites

Satellite Brightness Start Highest point End
(mag) Time Altitude Azimuth Time Altitude Azimuth Time Altitude Azimuth
In-Cosmos 22 4.2 20:05:43 10° N 20:10:55 54° ENE 20:16:04 10° SSE
Cosmos 1378 3.8 20:09:12 10° NNW 20:12:56 61° W 20:16:36 10° S
Lacrosse 4 Rocket 4.2 20:10:50 10° W 20:13:52 20° NW 20:16:54 10° N
Spot 2 Rocket 4.1 20:09:16 10° SE 20:13:55 37° ENE 20:18:36 10° N
Lacrosse 5 rocket 2.9 20:12:00 10° NNW 20:15:01 20° NNE 20:17:54 10° E
Cosmos 1076 Rocket 4.2 20:16:26 10° NNE 20:20:18 33° ENE 20:24:09 10° SE
Cosmos 2344 4.0 20:12:47 10° SW 20:20:26 74° NW 20:29:02 10° NNE
Cosmos 1544 3.3 20:17:16 10° S 20:20:48 49° E 20:24:21 10° NNE
Cosmos 1867 3.6 20:16:45 10° SSW 20:22:05 60° ESE 20:27:28 10° NE
H-2A R/B (2) 3.3 20:20:18 10° SW 20:22:23 17° S 20:25:41 10° SE
Cosmos 1934 Rocket 4.1 20:16:45 10° S 20:22:52 83° W 20:28:58 10° N
FENGYUN 3A 3.6 20:18:42 10° SSE 20:24:05 72° ENE 20:29:28 10° N
CZ-2D R/B 4.1 20:20:43 10° SE 20:24:07 30° ENE 20:27:33 10° N
Okean 3 Rocket 3.6 20:20:15 10° N 20:24:37 62° E 20:28:59 10° SSE
Cosmos 1805 3.2 20:23:21 10° S 20:27:12 62° E 20:31:04 10° NNE
Cosmos 1833 Rocket 3.1 20:23:33 10° N 20:28:53 42° ENE 20:34:11 10° SE
ALOS 2.3 20:25:22 10° SSE 20:30:02 86° E 20:34:45 10° NNW
Helios 1A 4.1 20:26:43 10° ESE 20:30:06 24° ENE 20:33:30 10° NNE
Envisat 4.3 20:28:31 10° ESE 20:32:17 21° ENE 20:36:03 10° NNE
Abrixas 2.6 20:30:28 10° WNW 20:33:16 64° SW 20:35:43 13° SE
RESURS DK-1 4.2 20:32:40 10° NW 20:36:22 33° WSW 20:40:04 10° S
Tiangong 1 3.7 20:35:40 10° WSW 20:37:10 13° SW 20:38:39 10° S
Cosmos 2278 Rocket 3.2 20:32:32 10° SW 20:38:03 52° WNW 20:43:37 10° NNE
ATLAS 5 CENTAUR R/B 1.8 20:35:57 10° SSW 20:40:28 55° ESE 20:45:22 10° NE
Cosmos 1125 Rocket 3.4 20:36:56 10° SSW 20:42:08 84° ESE 20:47:22 10° NNE
SeaSat 1 2.4 20:37:39 10° SSE 20:42:34 84° ENE 20:47:32 10° NNW
Cosmos 1733 3.9 20:40:17 10° SSE 20:43:43 31° E 20:47:11 10° NNE
Cosmos 1470 3.3 20:41:40 10° SSE 20:45:19 35° E 20:48:58 10° NNE
Cosmos 1048 Rocket 3.9 20:40:39 10° NNW 20:45:46 65° ENE 20:50:51 10° SSE
Geosat 4.3 20:41:03 10° NE 20:45:49 42° ESE 20:50:34 10° S
GPS 2-05 Rocket1 3.6 20:42:53 10° WSW 20:46:13 39° S 20:48:14 20° ESE
Cosmos 1766 Rocket 3.8 20:42:42 10° N 20:47:04 49° E 20:51:24 10° SSE
Cosmos-2242 3.3 20:43:59 10° SSE 20:47:59 42° E 20:52:01 10° NNE
GP-B 3.3 20:47:14 10° SSE 20:51:30 47° E 20:55:46 10° N
Cosmos 2297 3.8 20:50:33 10° SSW 20:56:15 81° WNW 21:02:02 10° NNE
USA 186 1.1 20:58:06 45° ENE 20:58:06 45° ENE 21:00:11 10° N
BREEZE-M DEB (TANK) 3.6 20:55:20 10° WSW 20:58:11 60° NNW 21:05:55 10° ENE
H-2A R/B 3.2 20:54:57 10° S 20:58:49 66° W 21:02:45 10° NNW
Cosmos 1340 Rocket 3.2 20:56:43 10° N 21:00:33 41° ENE 21:02:27 24° SE
Resurs 01 Rocket 1.9 20:56:35 10° S 21:00:58 69° WSW 21:05:23 10° NNW
CZ-4B DEB 3.4 21:01:09 31° E 21:01:27 31° ENE 21:04:15 10° N
Cosmos 2082 Rocket 2.3 21:03:30 10° NNW 21:09:13 82° WSW 21:14:42 11° SSE
ISS -3.5 21:07:29 10° WSW 21:10:42 63° NW 21:12:45 21° NE
Meteor 1-29 2.9 21:10:53 10° NNE 21:14:20 57° ESE 21:16:41 19° S
Cosmos 2100 Rocket 3.9 21:08:08 10° S 21:14:25 74° E 21:20:47 10° N
Cosmos 1743 Rocket 3.7 21:13:53 10° N 21:18:13 50° E 21:19:40 35° SE
SAR-Lupe-4 3.5 21:16:30 22° S 21:18:42 83° WSW 21:22:19 10° NNW
Cosmos 1500 Rocket 4.1 21:15:11 10° N 21:19:10 36° ENE 21:19:25 35° E
CZ-3B DEB 4.2 21:13:38 10° W 21:21:57 30° NW 21:26:22 10° NNE
YAOGAN 6 4.2 21:24:20 22° NE 21:24:20 22° NE 21:26:21 10° NNE
SL-14 R/B 4.1 21:19:46 10° N 21:22:48 33° ENE 21:22:48 33° ENE
COSMOS 2487 3.7 21:20:42 10° NNW 21:24:05 41° WSW 21:26:45 15° S
Cosmos 1271 Rocket 3.1 21:20:35 10° SSW 21:24:34 70° W 21:28:36 10° N
Cosmos 2058 4.5 21:23:12 10° NNE 21:25:21 21° NE 21:25:21 21° NE
Cosmos 2251 Rocket 3.8 21:22:12 10° N 21:27:21 47° ENE 21:28:42 39° ESE
H-2A R/B 4.4 21:23:21 10° WSW 21:29:39 50° SSE 22:33:48 10° ESE
H-2A R/B 4.4 21:23:21 10° WSW 21:29:40 50° SSE 22:33:48 10° ESE
Cosmos 1328 4.0 21:26:42 10° N 21:30:24 50° ENE 21:30:24 50° ENE
Cosmos 1674 3.8 21:29:16 10° NNW 21:32:53 43° W 21:36:15 12° SSW
USA 215 3.3 21:29:42 10° NE 21:36:04 54° SE 21:42:24 10° SSW
Lacrosse 5 4.4 21:32:48 10° WNW 21:36:14 18° NNW 21:39:40 10° NNE
Cosmos 1802 Rocket 3.9 21:32:05 10° S 21:38:13 89° E 21:44:25 10° N
SPOT 5 4.2 21:42:54 28° ENE 21:42:54 28° ENE 21:46:55 10° N
Cosmos 2151 3.6 21:38:47 10° N 21:42:00 40° NE 21:42:00 40° NE
Cosmos 1939 Rocket 2.8 21:42:56 68° SSE 21:43:28 88° E 21:47:38 10° NNW
Helios 1B rocket 3.4 21:40:13 10° N 21:44:12 48° WNW 21:48:08 10° SSW
SJ-11-01 4.3 21:48:15 42° S 21:49:51 76° WSW 21:54:35 10° NNW
Cosmos 1842 Rocket 3.5 21:50:28 45° SSW 21:51:47 81° W 21:56:11 10° N
Lacrosse 5 rocket 1.7 21:50:44 10° NW 21:54:09 51° WSW 21:54:09 51° WSW
Cosmos 2061 Rocket 4.5 21:49:14 10° SSW 21:55:33 63° W 22:01:58 10° N
Cosmos 494 Rocket 3.8 21:53:19 10° NNW 21:58:28 90° W 21:59:02 72° SSE
Cosmos 2369 Rocket 3.6 22:01:47 24° NE 22:01:47 24° NE 22:04:01 10° NNE
MetOp-B 4.5 22:02:47 49° NE 22:02:47 49° NE 22:07:26 10° N
Gblst 52 Del rocket 4.0 22:00:56 10° SW 22:06:56 86° SE 22:07:37 70° ENE
USA 267 4.4 22:06:11 26° NE 22:08:14 31° NNE 22:13:46 10° NW
Cosmos 2233 Rocket 4.3 22:10:13 49° ENE 22:10:13 49° ENE 22:15:09 10° NNE
Envisat 3.9 22:08:43 28° SSW 22:10:57 45° W 22:15:50 10° NNW
Cosmos 1864 Rocket 4.5 22:11:34 35° S 22:14:30 84° W 22:20:51 10° N
NOAA 11 4.3 22:19:30 62° NNE 22:19:30 62° NNE 22:24:16 10° N
ERS-1 Rocket 3.2 22:23:15 64° W 22:23:15 64° W 22:28:08 10° NNW
ATLAS 5 CENTAUR R/B 4.2 22:21:48 10° W 22:25:32 22° NW 22:29:31 10° N
H-2A R/B 3.5 22:31:01 28° NNE 22:31:01 28° NNE 22:33:46 10° N
CZ-3 Stage 3 3.7 22:17:48 10° W 22:37:28 41° SSW 22:38:06 40° SSW
ARGOS 4.2 22:55:16 42° NNW 22:55:16 42° NNW 22:58:49 10° NNW
MOS 1-B Rocket 4.5 23:01:31 78° N 23:01:31 78° N 23:07:56 10° NNW
USA 215 4.0 23:12:48 10° NE 23:18:59 47° NNW 23:25:10 10° WSW
Terra 4.5 23:31:04 15° N 23:31:04 15° N 23:31:52 10° NNW
Cosmos 2369 Rocket 4.2 23:43:23 23° NW 23:43:23 23° NW 23:47:19 10° N
USA 267 4.4 23:53:31 37° NW 23:53:31 37° NW 23:57:13 10° NW
